EWG7XS LOWW-EDDK

Flight info

Callsign EWG7XS
Flight time 1h 15m
Altitude 38000
Route BUWUT DCT DITIS DCT RAPET T843 VELIS/N0411F320 DCT MASEK T841 ERNEP ERNEP1B
Aircraft A320/M-SDE3FGHIRWY/LB1

Departure

Time 2026-05-06 18:30
Airport Vienna International Airport (LOWW)

Arrival

Time 2026-05-06 19:46
Airport Cologne Bonn Airport (EDDK)
Time Latitude Longitude Altitude Speed Heading
2026-05-06 17:46 48.11929 16.55634 608 ft 0 kts 26°
2026-05-06 18:16 48.11922 16.55629 610 ft 4 kts 26°
2026-05-06 18:16 48.11897 16.55611 618 ft 4 kts 27°
2026-05-06 18:16 48.11874 16.55591 613 ft 4 kts 39°
2026-05-06 18:17 48.11860 16.55565 621 ft 4 kts 97°
2026-05-06 18:17 48.11861 16.55556 621 ft 0 kts 116°
2026-05-06 18:20 48.11861 16.55557 621 ft 0 kts 116°
2026-05-06 18:20 48.11852 16.55582 617 ft 6 kts 116°
2026-05-06 18:20 48.11827 16.55659 622 ft 11 kts 116°
2026-05-06 18:21 48.11790 16.55775 613 ft 13 kts 116°
2026-05-06 18:21 48.11748 16.55904 612 ft 14 kts 116°
2026-05-06 18:21 48.11703 16.56041 610 ft 15 kts 116°
2026-05-06 18:21 48.11657 16.56182 617 ft 15 kts 116°
2026-05-06 18:22 48.11609 16.56328 614 ft 16 kts 116°
2026-05-06 18:22 48.11559 16.56483 610 ft 17 kts 116°
2026-05-06 18:22 48.11507 16.56643 613 ft 17 kts 116°
2026-05-06 18:22 48.11454 16.56804 615 ft 17 kts 116°
2026-05-06 18:23 48.11401 16.56967 610 ft 18 kts 116°
2026-05-06 18:23 48.11346 16.57134 616 ft 18 kts 116°
2026-05-06 18:23 48.11301 16.57281 610 ft 13 kts 103°
2026-05-06 18:23 48.11359 16.57364 621 ft 12 kts 25°
2026-05-06 18:24 48.11437 16.57420 610 ft 13 kts 26°
2026-05-06 18:24 48.11530 16.57461 610 ft 15 kts 355°
2026-05-06 18:24 48.11633 16.57419 621 ft 16 kts 344°
2026-05-06 18:24 48.11737 16.57375 613 ft 15 kts 345°
2026-05-06 18:25 48.11835 16.57334 621 ft 14 kts 343°
2026-05-06 18:25 48.11908 16.57303 610 ft 10 kts 344°
2026-05-06 18:25 48.11960 16.57287 613 ft 7 kts
2026-05-06 18:25 48.11990 16.57333 617 ft 6 kts 71°
2026-05-06 18:26 48.12002 16.57395 610 ft 8 kts 74°
2026-05-06 18:26 48.12012 16.57492 610 ft 10 kts 98°
2026-05-06 18:26 48.11998 16.57578 614 ft 6 kts 104°
2026-05-06 18:26 48.11997 16.57586 610 ft 0 kts 104°
2026-05-06 18:27 48.11990 16.57622 614 ft 8 kts 104°
2026-05-06 18:27 48.11973 16.57724 614 ft 11 kts 105°
2026-05-06 18:28 48.11937 16.57829 621 ft 10 kts 133°
2026-05-06 18:28 48.11904 16.57850 615 ft 0 kts 163°
2026-05-06 18:30 48.11873 16.57863 610 ft 23 kts 165°
2026-05-06 18:30 48.11470 16.58033 615 ft 94 kts 164°
2026-05-06 18:30 48.10648 16.58379 622 ft 148 kts 165°
2026-05-06 18:30 48.09679 16.58792 1317 ft 141 kts 163°
2026-05-06 18:31 48.08750 16.59228 2069 ft 140 kts 169°
2026-05-06 18:31 48.07748 16.59650 2511 ft 160 kts 171°
2026-05-06 18:31 48.06603 16.60140 2933 ft 182 kts 166°
2026-05-06 18:31 48.05492 16.61224 3566 ft 202 kts 144°
2026-05-06 18:32 48.04708 16.63083 4213 ft 225 kts 117°
2026-05-06 18:32 48.04566 16.65504 4853 ft 246 kts 85°
2026-05-06 18:32 48.05287 16.67874 5520 ft 259 kts 49°
2026-05-06 18:32 48.06656 16.69692 6154 ft 273 kts 38°
2026-05-06 18:33 48.08230 16.71485 6572 ft 297 kts 36°
2026-05-06 18:33 48.09934 16.73348 7249 ft 308 kts 36°
2026-05-06 18:33 48.11682 16.75245 8114 ft 312 kts 36°
2026-05-06 18:33 48.13523 16.76991 9003 ft 315 kts 24°
2026-05-06 18:34 48.15589 16.78083 9869 ft 317 kts 11°
2026-05-06 18:34 48.17846 16.78461 10193 ft 337 kts 355°
2026-05-06 18:34 48.20220 16.77979 10639 ft 350 kts 346°
2026-05-06 18:34 48.22634 16.77303 11359 ft 356 kts 346°
2026-05-06 18:35 48.25087 16.76650 12127 ft 361 kts 347°
2026-05-06 18:35 48.27580 16.76003 12896 ft 365 kts 347°
2026-05-06 18:35 48.30100 16.75352 13662 ft 370 kts 347°
2026-05-06 18:35 48.32655 16.74666 14265 ft 376 kts 344°
2026-05-06 18:36 48.35146 16.73499 14931 ft 375 kts 333°
2026-05-06 18:36 48.37483 16.71759 15635 ft 375 kts 328°
2026-05-06 18:36 48.39805 16.69938 16351 ft 377 kts 327°
2026-05-06 18:36 48.41988 16.67774 17053 ft 374 kts 316°
2026-05-06 18:37 48.43828 16.65033 17739 ft 371 kts 304°
2026-05-06 18:37 48.44825 16.62961 18175 ft 369 kts 297°
2026-05-06 18:37 48.46272 16.58322 19010 ft 365 kts 285°
2026-05-06 18:37 48.47152 16.54727 19639 ft 367 kts 285°
2026-05-06 18:38 48.48043 16.51115 20231 ft 370 kts 285°
2026-05-06 18:38 48.48946 16.47466 20824 ft 373 kts 285°
2026-05-06 18:38 48.49854 16.43791 21392 ft 376 kts 285°
2026-05-06 18:38 48.50771 16.40080 21970 ft 379 kts 285°
2026-05-06 18:39 48.51693 16.36339 22532 ft 382 kts 285°
2026-05-06 18:39 48.52619 16.32562 23098 ft 385 kts 285°
2026-05-06 18:39 48.53550 16.28756 23586 ft 388 kts 285°
2026-05-06 18:40 48.55426 16.21057 24559 ft 392 kts 285°
2026-05-06 18:40 48.56367 16.17181 25027 ft 394 kts 284°
2026-05-06 18:40 48.57299 16.13338 25458 ft 396 kts 285°
2026-05-06 18:40 48.58322 16.09395 25901 ft 399 kts 287°
2026-05-06 18:41 48.59412 16.05528 26332 ft 402 kts 288°
2026-05-06 18:41 48.60553 16.01653 26752 ft 404 kts 288°
2026-05-06 18:41 48.61694 15.97823 27158 ft 406 kts 289°
2026-05-06 18:41 48.62869 15.93862 27560 ft 408 kts 288°
2026-05-06 18:42 48.64013 15.89931 27974 ft 410 kts 288°
2026-05-06 18:42 48.65132 15.86019 28382 ft 411 kts 288°
2026-05-06 18:42 48.66261 15.82044 28806 ft 412 kts 287°
2026-05-06 18:42 48.67391 15.78050 29196 ft 414 kts 287°
2026-05-06 18:43 48.68522 15.74043 29575 ft 415 kts 287°
2026-05-06 18:43 48.69656 15.70012 29911 ft 417 kts 287°
2026-05-06 18:43 48.70792 15.65967 30208 ft 418 kts 287°
2026-05-06 18:43 48.71932 15.61914 30498 ft 420 kts 287°
2026-05-06 18:44 48.73080 15.57835 30785 ft 421 kts 287°
2026-05-06 18:44 48.74227 15.53755 31060 ft 422 kts 287°
2026-05-06 18:44 48.75375 15.49662 31340 ft 422 kts 287°
2026-05-06 18:44 48.76522 15.45574 31718 ft 421 kts 287°
2026-05-06 18:45 48.77660 15.41505 32135 ft 419 kts 285°
2026-05-06 18:45 48.78790 15.37442 32498 ft 418 kts 285°
2026-05-06 18:45 48.79929 15.33386 32845 ft 418 kts 288°
2026-05-06 18:45 48.80843 15.30733 33091 ft 424 kts 293°
2026-05-06 18:46 48.83091 15.25830 33572 ft 428 kts 298°
2026-05-06 18:46 48.84833 15.22182 33898 ft 427 kts 297°
2026-05-06 18:46 48.86566 15.18530 34184 ft 426 kts 297°
2026-05-06 18:46 48.88290 15.14870 34451 ft 426 kts 297°
2026-05-06 18:47 48.90011 15.11204 34714 ft 426 kts 298°
2026-05-06 18:47 48.91751 15.07552 34973 ft 427 kts 298°
2026-05-06 18:47 48.93520 15.03919 35206 ft 428 kts 299°
2026-05-06 18:47 48.95307 15.00282 35407 ft 430 kts 299°
2026-05-06 18:48 48.97103 14.96641 35631 ft 430 kts 299°
2026-05-06 18:48 48.98900 14.92996 35865 ft 430 kts 299°
2026-05-06 18:48 49.00691 14.89347 36118 ft 430 kts 299°
2026-05-06 18:48 49.02477 14.85688 36342 ft 430 kts 299°
2026-05-06 18:49 49.04252 14.82020 36565 ft 430 kts 299°
2026-05-06 18:49 49.06020 14.78348 36789 ft 430 kts 299°
2026-05-06 18:49 49.07786 14.74675 37006 ft 430 kts 300°
2026-05-06 18:49 49.08958 14.72240 37145 ft 430 kts 300°
2026-05-06 18:50 49.10727 14.68569 37363 ft 430 kts 300°
2026-05-06 18:50 49.12503 14.64887 37543 ft 430 kts 300°
2026-05-06 18:50 49.14277 14.61207 37694 ft 431 kts 300°
2026-05-06 18:51 49.17824 14.53834 37717 ft 430 kts 300°
2026-05-06 18:51 49.21352 14.46462 37712 ft 430 kts 300°
2026-05-06 18:52 49.24874 14.39077 37720 ft 429 kts 300°
2026-05-06 18:52 49.28394 14.31678 37732 ft 432 kts 300°
2026-05-06 18:53 49.31942 14.24213 37725 ft 434 kts 300°
2026-05-06 18:53 49.35492 14.16714 37735 ft 435 kts 300°
2026-05-06 18:54 49.39044 14.09204 37734 ft 435 kts 300°
2026-05-06 18:54 49.42592 14.01678 37742 ft 435 kts 300°
2026-05-06 18:55 49.46126 13.94129 37755 ft 436 kts 300°
2026-05-06 18:55 49.49668 13.86557 37741 ft 437 kts 300°
2026-05-06 18:56 49.53224 13.78957 37736 ft 438 kts 300°
2026-05-06 18:56 49.56775 13.71342 37744 ft 438 kts 300°
2026-05-06 18:57 49.60292 13.63749 37746 ft 438 kts 300°
2026-05-06 18:57 49.63829 13.56090 37771 ft 439 kts 300°
2026-05-06 18:58 49.67377 13.48406 37756 ft 440 kts 300°
2026-05-06 18:58 49.70929 13.40699 37749 ft 441 kts 300°
2026-05-06 18:59 49.74476 13.32970 37747 ft 441 kts 300°
2026-05-06 18:59 49.78029 13.25225 37751 ft 441 kts 300°
2026-05-06 19:00 49.81569 13.17454 37749 ft 442 kts 300°
2026-05-06 19:00 49.85103 13.09678 37769 ft 442 kts 300°
2026-05-06 19:01 49.88623 13.01875 37771 ft 440 kts 296°
2026-05-06 19:01 49.91031 12.93338 37774 ft 431 kts 286°
2026-05-06 19:02 49.93186 12.84658 37777 ft 431 kts 285°
2026-05-06 19:02 49.95333 12.75954 37800 ft 432 kts 285°
2026-05-06 19:03 49.97479 12.67222 37790 ft 433 kts 285°
2026-05-06 19:03 49.99625 12.58472 37787 ft 433 kts 285°
2026-05-06 19:04 50.01766 12.49710 37790 ft 434 kts 285°
2026-05-06 19:04 50.03901 12.40933 37791 ft 434 kts 285°
2026-05-06 19:05 50.06035 12.32144 37806 ft 434 kts 285°
2026-05-06 19:05 50.08160 12.23342 37802 ft 435 kts 285°
2026-05-06 19:06 50.10270 12.14527 37810 ft 435 kts 285°
2026-05-06 19:06 50.12381 12.05694 37809 ft 435 kts 285°
2026-05-06 19:07 50.14491 11.96853 37835 ft 435 kts 285°
2026-05-06 19:07 50.16585 11.88009 37835 ft 435 kts 285°
2026-05-06 19:08 50.18661 11.79228 37825 ft 434 kts 285°
2026-05-06 19:08 50.19701 11.74811 37585 ft 432 kts 285°
2026-05-06 19:08 50.20725 11.70445 37260 ft 424 kts 285°
2026-05-06 19:08 50.21731 11.66165 36941 ft 416 kts 285°
2026-05-06 19:09 50.22715 11.61966 36629 ft 408 kts 284°
2026-05-06 19:09 50.23683 11.57823 36319 ft 404 kts 284°
2026-05-06 19:09 50.24642 11.53710 36038 ft 402 kts 284°
2026-05-06 19:09 50.25595 11.49605 35731 ft 402 kts 284°
2026-05-06 19:10 50.26546 11.45501 35363 ft 401 kts 284°
2026-05-06 19:10 50.27494 11.41410 34952 ft 400 kts 284°
2026-05-06 19:10 50.28441 11.37319 34546 ft 399 kts 283°
2026-05-06 19:10 50.29383 11.33240 34179 ft 398 kts 283°
2026-05-06 19:11 50.30320 11.29169 33903 ft 397 kts 283°
2026-05-06 19:11 50.31255 11.25112 33650 ft 397 kts 283°
2026-05-06 19:11 50.32188 11.21054 33420 ft 397 kts 283°
2026-05-06 19:11 50.33119 11.16989 33205 ft 398 kts 283°
2026-05-06 19:12 50.34053 11.12900 32987 ft 399 kts 283°
2026-05-06 19:12 50.34987 11.08803 32796 ft 402 kts 283°
2026-05-06 19:12 50.35929 11.04679 32570 ft 402 kts 283°
2026-05-06 19:12 50.36870 11.00557 32364 ft 402 kts 283°
2026-05-06 19:13 50.37810 10.96427 32146 ft 403 kts 283°
2026-05-06 19:13 50.38750 10.92287 31937 ft 404 kts 283°
2026-05-06 19:13 50.39690 10.88146 31768 ft 404 kts 283°
2026-05-06 19:13 50.40627 10.84005 31364 ft 403 kts 283°
2026-05-06 19:14 50.41561 10.79854 30622 ft 405 kts 284°
2026-05-06 19:14 50.42499 10.75675 29854 ft 408 kts 284°
2026-05-06 19:14 50.43425 10.71458 28956 ft 409 kts 282°
2026-05-06 19:14 50.44099 10.67127 28072 ft 410 kts 278°
2026-05-06 19:15 50.44725 10.62732 27079 ft 415 kts 279°
2026-05-06 19:15 50.45356 10.58332 26643 ft 408 kts 279°
2026-05-06 19:15 50.45973 10.54078 26503 ft 393 kts 279°
2026-05-06 19:15 50.46574 10.49976 26280 ft 382 kts 280°
2026-05-06 19:16 50.47394 10.46010 25886 ft 381 kts 289°
2026-05-06 19:16 50.48506 10.42253 25440 ft 379 kts 292°
2026-05-06 19:16 50.49618 10.38583 24990 ft 376 kts 292°
2026-05-06 19:16 50.50731 10.34887 24781 ft 374 kts 292°
2026-05-06 19:17 50.51854 10.31145 24798 ft 375 kts 291°
2026-05-06 19:17 50.52964 10.27429 24796 ft 375 kts 291°
2026-05-06 19:17 50.54077 10.23711 24801 ft 375 kts 292°
2026-05-06 19:17 50.55188 10.20002 24803 ft 375 kts 292°
2026-05-06 19:18 50.56297 10.16286 24798 ft 375 kts 292°
2026-05-06 19:18 50.57403 10.12568 24713 ft 376 kts 292°
2026-05-06 19:18 50.58510 10.08845 24471 ft 374 kts 292°
2026-05-06 19:18 50.59610 10.05149 24231 ft 372 kts 292°
2026-05-06 19:19 50.60690 10.01513 23999 ft 371 kts 292°
2026-05-06 19:19 50.61778 9.97834 23766 ft 370 kts 292°
2026-05-06 19:19 50.62859 9.94172 23528 ft 368 kts 292°
2026-05-06 19:19 50.63937 9.90522 23281 ft 367 kts 292°
2026-05-06 19:20 50.65011 9.86885 23006 ft 366 kts 292°
2026-05-06 19:20 50.66080 9.83260 22745 ft 364 kts 292°
2026-05-06 19:20 50.67138 9.79666 22469 ft 358 kts 292°
2026-05-06 19:20 50.68176 9.76129 22198 ft 354 kts 292°
2026-05-06 19:21 50.69202 9.72614 21936 ft 352 kts 292°
2026-05-06 19:21 50.70223 9.69107 21670 ft 351 kts 292°
2026-05-06 19:21 50.71241 9.65616 21405 ft 349 kts 292°
2026-05-06 19:21 50.72252 9.62142 21144 ft 348 kts 292°
2026-05-06 19:22 50.73267 9.58681 20880 ft 347 kts 293°
2026-05-06 19:22 50.74325 9.55262 20630 ft 346 kts 294°
2026-05-06 19:22 50.75410 9.51879 20376 ft 345 kts 295°
2026-05-06 19:22 50.76501 9.48513 20131 ft 344 kts 295°
2026-05-06 19:23 50.77592 9.45160 19877 ft 343 kts 295°
2026-05-06 19:23 50.78677 9.41815 19624 ft 342 kts 295°
2026-05-06 19:23 50.79751 9.38475 19402 ft 340 kts 294°
2026-05-06 19:23 50.80812 9.35150 19160 ft 338 kts 294°
2026-05-06 19:24 50.81861 9.31839 18919 ft 336 kts 294°
2026-05-06 19:24 50.82902 9.28534 18680 ft 335 kts 293°
2026-05-06 19:24 50.83938 9.25242 18443 ft 334 kts 293°
2026-05-06 19:24 50.84972 9.21962 18206 ft 333 kts 293°
2026-05-06 19:25 50.86001 9.18690 17942 ft 331 kts 293°
2026-05-06 19:25 50.87028 9.15432 17675 ft 330 kts 294°
2026-05-06 19:25 50.88049 9.12187 17405 ft 329 kts 293°
2026-05-06 19:25 50.89065 9.08948 17143 ft 328 kts 293°
2026-05-06 19:26 50.90077 9.05722 16880 ft 327 kts 294°
2026-05-06 19:26 50.91085 9.02506 16625 ft 325 kts 293°
2026-05-06 19:26 50.92082 8.99294 16359 ft 324 kts 293°
2026-05-06 19:26 50.93080 8.96102 16099 ft 323 kts 294°
2026-05-06 19:27 50.94086 8.92934 15847 ft 319 kts 294°
2026-05-06 19:27 50.95017 8.89779 15625 ft 310 kts 285°
2026-05-06 19:27 50.95407 8.86468 15165 ft 307 kts 271°
2026-05-06 19:27 50.95533 8.83077 14682 ft 309 kts 271°
2026-05-06 19:28 50.95640 8.79671 14285 ft 308 kts 271°
2026-05-06 19:28 50.95740 8.76281 13907 ft 307 kts 271°
2026-05-06 19:28 50.95838 8.72907 13527 ft 306 kts 271°
2026-05-06 19:28 50.95939 8.69550 13122 ft 304 kts 271°
2026-05-06 19:29 50.96039 8.66211 12848 ft 303 kts 271°
2026-05-06 19:29 50.96141 8.62878 12840 ft 303 kts 271°
2026-05-06 19:29 50.96244 8.59532 12830 ft 303 kts 271°
2026-05-06 19:29 50.96344 8.56210 12453 ft 301 kts 271°
2026-05-06 19:30 50.96439 8.52904 12040 ft 299 kts 271°
2026-05-06 19:30 50.96532 8.49616 11655 ft 297 kts 270°
2026-05-06 19:30 50.96623 8.46345 11245 ft 296 kts 270°
2026-05-06 19:30 50.96712 8.43091 10845 ft 295 kts 270°
2026-05-06 19:31 50.96802 8.39846 10449 ft 294 kts 270°
2026-05-06 19:31 50.96894 8.36614 10055 ft 293 kts 271°
2026-05-06 19:31 50.96821 8.30300 9844 ft 280 kts 261°
2026-05-06 19:32 50.96470 8.27279 9858 ft 278 kts 255°
2026-05-06 19:32 50.95925 8.24387 9843 ft 277 kts 248°
2026-05-06 19:32 50.95176 8.21581 9838 ft 276 kts 243°
2026-05-06 19:32 50.94319 8.18807 9838 ft 276 kts 243°
2026-05-06 19:33 50.93483 8.16104 9834 ft 276 kts 243°
2026-05-06 19:33 50.92639 8.13369 9834 ft 277 kts 243°
2026-05-06 19:33 50.91796 8.10634 9839 ft 276 kts 243°
2026-05-06 19:33 50.90946 8.07894 9836 ft 277 kts 243°
2026-05-06 19:34 50.90095 8.05161 9839 ft 277 kts 243°
2026-05-06 19:34 50.89249 8.02432 9685 ft 275 kts 243°
2026-05-06 19:34 50.88409 7.99710 9196 ft 276 kts 245°
2026-05-06 19:34 50.87554 7.96949 8645 ft 281 kts 245°
2026-05-06 19:35 50.86691 7.94176 8207 ft 280 kts 245°
2026-05-06 19:35 50.86107 7.92313 7939 ft 279 kts 245°
2026-05-06 19:35 50.84972 7.88682 7418 ft 276 kts 245°
2026-05-06 19:35 50.84123 7.85961 7019 ft 275 kts 245°
2026-05-06 19:36 50.83564 7.84173 6861 ft 273 kts 245°
2026-05-06 19:36 50.82722 7.81479 6855 ft 274 kts 245°
2026-05-06 19:36 50.81876 7.78782 6678 ft 272 kts 245°
2026-05-06 19:36 50.81037 7.76104 6259 ft 271 kts 245°
2026-05-06 19:37 50.80190 7.73406 5807 ft 270 kts 245°
2026-05-06 19:37 50.79361 7.70759 5375 ft 268 kts 245°
2026-05-06 19:37 50.78535 7.68128 4964 ft 267 kts 245°
2026-05-06 19:37 50.77712 7.65518 4547 ft 265 kts 245°
2026-05-06 19:38 50.76893 7.62921 4108 ft 263 kts 245°
2026-05-06 19:38 50.76086 7.60359 3972 ft 254 kts 245°
2026-05-06 19:38 50.75325 7.57955 3986 ft 238 kts 245°
2026-05-06 19:38 50.74592 7.55640 3996 ft 235 kts 246°
2026-05-06 19:39 50.73864 7.53340 3999 ft 234 kts 245°
2026-05-06 19:39 50.73135 7.51037 3999 ft 234 kts 245°
2026-05-06 19:39 50.72406 7.48742 3910 ft 232 kts 246°
2026-05-06 19:39 50.71683 7.46463 3557 ft 233 kts 246°
2026-05-06 19:40 50.70961 7.44186 3238 ft 232 kts 246°
2026-05-06 19:40 50.70404 7.41834 3012 ft 227 kts 265°
2026-05-06 19:40 50.70496 7.39394 2997 ft 223 kts 289°
2026-05-06 19:40 50.71213 7.37256 3005 ft 221 kts 313°
2026-05-06 19:41 50.72310 7.35617 3004 ft 219 kts 319°
2026-05-06 19:41 50.73413 7.34037 2995 ft 206 kts 319°
2026-05-06 19:41 50.74433 7.32567 2997 ft 190 kts 319°
2026-05-06 19:41 50.75365 7.31218 3018 ft 173 kts 319°
2026-05-06 19:42 50.76234 7.29962 2834 ft 167 kts 319°
2026-05-06 19:42 50.77075 7.28751 2616 ft 160 kts 320°
2026-05-06 19:42 50.77889 7.27578 2407 ft 157 kts 320°
2026-05-06 19:42 50.78695 7.26417 2201 ft 156 kts 319°
2026-05-06 19:43 50.79491 7.25271 2011 ft 154 kts 319°
2026-05-06 19:43 50.80244 7.24184 1781 ft 139 kts 319°
2026-05-06 19:43 50.80932 7.23192 1594 ft 130 kts 319°
2026-05-06 19:43 50.81595 7.22237 1406 ft 128 kts 319°
2026-05-06 19:44 50.82250 7.21292 1224 ft 127 kts 318°
2026-05-06 19:44 50.82905 7.20347 1053 ft 128 kts 317°
2026-05-06 19:44 50.83561 7.19398 861 ft 129 kts 317°
2026-05-06 19:44 50.84226 7.18440 684 ft 130 kts 318°
2026-05-06 19:45 50.84885 7.17473 521 ft 130 kts 318°
2026-05-06 19:45 50.85548 7.16524 360 ft 130 kts 319°
2026-05-06 19:45 50.86180 7.15612 292 ft 105 kts 317°
2026-05-06 19:45 50.86591 7.15018 275 ft 56 kts 317°
2026-05-06 19:46 50.86781 7.14739 267 ft 22 kts 313°
2026-05-06 19:46 50.86851 7.14568 262 ft 16 kts 294°
2026-05-06 19:46 50.86875 7.14439 260 ft 12 kts 279°
2026-05-06 19:46 50.86891 7.14286 257 ft 17 kts 279°
2026-05-06 19:47 50.86913 7.14127 255 ft 15 kts 291°
2026-05-06 19:47 50.86981 7.13995 249 ft 12 kts 317°
2026-05-06 19:47 50.87052 7.13892 244 ft 17 kts 317°
2026-05-06 19:47 50.87148 7.13753 240 ft 20 kts 317°
2026-05-06 19:48 50.87251 7.13603 242 ft 22 kts 317°
2026-05-06 19:48 50.87344 7.13469 233 ft 19 kts 317°
2026-05-06 19:48 50.87438 7.13332 233 ft 17 kts 317°
2026-05-06 19:48 50.87521 7.13212 233 ft 15 kts 317°
2026-05-06 19:49 50.87600 7.13098 233 ft 15 kts 317°
2026-05-06 19:49 50.87680 7.12983 233 ft 12 kts 317°
2026-05-06 19:49 50.87720 7.12925 233 ft 7 kts 318°
2026-05-06 19:49 50.87755 7.12874 232 ft 7 kts 317°
2026-05-06 19:50 50.87789 7.12814 232 ft 7 kts 295°
2026-05-06 19:50 50.87783 7.12723 232 ft 9 kts 255°
2026-05-06 19:50 50.87768 7.12631 233 ft 8 kts 256°
2026-05-06 19:50 50.87751 7.12560 233 ft 2 kts 237°
2026-05-06 19:51 50.87746 7.12533 235 ft 5 kts 264°
2026-05-06 19:51 50.87753 7.12480 232 ft 4 kts 287°
2026-05-06 19:51 50.87762 7.12436 234 ft 4 kts 288°
2026-05-06 19:51 50.87765 7.12418 234 ft 0 kts 288°
2026-05-06 19:52 50.87766 7.12417 234 ft 0 kts 288°
2026-05-06 19:52 50.87768 7.12407 233 ft 0 kts 288°
2026-05-06 19:52 50.87767 7.12408 233 ft 0 kts 288°
2026-05-06 19:53 50.87766 7.12413 234 ft 0 kts 288°
2026-05-06 19:53 50.87766 7.12417 234 ft 1 kts 287°
2026-05-06 19:53 50.87765 7.12417 234 ft 0 kts 287°